Regional Weather Roundup
Issued by NWS

Home | Current Version | Previous Version | Graphics & Text | Print | Product List | Glossary On
Versions: 1 2 3 4 5 6 7 8 9 10 11 12 13 14 15 16 17 18 19 20 21 22 23 24 25 26 27 28 29 30 31 32 33 34 35 36 37 38 39 40 41 42 43 44 45 46 47 48 49 50
000
ASUS43 KIND 221309
RWRIN

WEATHER ROUNDUP FOR INDIANA
NATIONAL WEATHER SERVICE INDIANAPOLIS IN
900 AM EDT SAT JUL 22 2017

NOTE: "FAIR" INDICATES FEW OR NO CLOUDS BELOW 12,000 FEET WITH NO
SIGNIFICANT WEATHER AND/OR OBSTRUCTIONS TO VISIBILITY.

* - STATION DOES NOT REPORT WEATHER SUCH AS PRECIPITATION OR FOG.

+ - STATION NOT QUALITY CONTROLLED BY THE NATIONAL WEATHER SERVICE.
    USE DATA WITH CAUTION...ESPECIALLY DEWPOINT AND RELATIVE
    HUMIDITY OBSERVATIONS.

INZ001>003-010>013-019-020-221400-
NORTHWEST INDIANA

CITY           SKY/WX    TMP DP  RH WIND       PRES   REMARKS
GARY /AIRPORT/ LGT RAIN  73  70  88 SW14      29.82R
KNOX *+        CLOUDY    72  70  94 SW14G20   29.83S
LA PORTE +     DRIZZLE   71  70  95 NW3       29.85R
MICHIGAN CITY+ DRIZZLE   72  72 100 CALM      29.85R
MONTICELLO +   CLOUDY    72  71  95 SW6       29.88R
RENSSELAER +   RAIN      72  70  94 SW9       29.90R
VALPARAISO     LGT RAIN  73  71  93 SW18      29.83S

$$

LMZ046-743>745-221400-
SOUTHERN LAKE MICHIGAN

STATION/POSITION TIME  TEMP    WIND        PRES    WAVE
                       AIR SEA DIR/SP/G            HT
                 (UTC) (F)     (DEG/KT/KT) (MB)    (FT)
BURNS HARBOR     1240   73     220/ 13/ 20 1009.8R
MICHIGAN CITY    1240   73     260/ 14/ 16   N/A
5NW MICH CITY    1300   74 74  260/ 10/ 16   N/A     3

$$

INZ004-005-014>016-021>024-221400-
NORTH CENTRAL INDIANA

CITY           SKY/WX    TMP DP  RH WIND       PRES   REMARKS
ELKHART        LGT RAIN  73  70  88 CALM      29.83S
GOSHEN         LGT RAIN  74  69  85 CALM      29.84S
LOGANSPORT +   CLOUDY    72  72 100 W5        29.89R
PERU/GRISSOM   CLOUDY    73  73 100 W6        29.87R
ROCHESTER +    LGT RAIN  73  73 100 SW7       29.86R
SOUTH BEND     CLOUDY    72  71  97 CALM      29.85R
WARSAW +       RAIN      72  70  94 SW8G16    29.84R

$$

INZ006>009-017-018-025>027-221400-
NORTHEAST INDIANA

CITY           SKY/WX    TMP DP  RH WIND       PRES   REMARKS
AUBURN +       CLOUDY    72  70  94 NE6       29.86R
FORT WAYNE     TSTM      72  69  90 S14       29.84F
HUNTINGTON +   TSTM      71  69  95 SW7       29.85F
KENDALLVILLE + CLOUDY    70  70 100 E3        29.87R

$$

INZ028-029-035-036-043>045-051>053-221400-
WEST CENTRAL INDIANA

CITY           SKY/WX    TMP DP  RH WIND       PRES   REMARKS
GREENCASTLE +  CLOUDY    75  73  94 CALM      29.91R
LAFAYETTE      CLOUDY    73  72  96 NW5       29.89R
TERRE HAUTE    SUNNY     81  75  82 W7        29.89R

$$

INZ030>032-037>040-046>048-054>057-064-065-221400-
CENTRAL INDIANA

CITY           SKY/WX    TMP DP  RH WIND       PRES   REMARKS
ANDERSON       SUNNY     75  70  83 MISG      29.89
CP ATTERBURY + CLOUDY    79  72  78 S3        29.90S
COLUMBUS       MOSUNNY   79  72  78 S7        29.90S
FRANKFORT +    CLOUDY    76  74  91 NW7       29.91R
GREENWOOD *+   PTSUNNY   76  69  78 S5        29.90S
INDIANAPOLIS   PTSUNNY   76  70  82 S7        29.89R
-EAGLE CREEK   CLOUDY    76  69  79 S7        29.89R
KOKOMO +       CLOUDY    74  72  93 NW9       29.90R
MARION +       CLOUDY    73  72  94 N6        29.90R
MT COMFORT *+  CLOUDY    73  70  88 S8        29.89S
SHELBYVILLE    MOSUNNY   78  69  73 S7        29.89R
ZIONSVILLE +   CLOUDY    73  71  92 S6        29.90R

$$

INZ033-034-041-042-049-050-058-059-221400-
EAST CENTRAL INDIANA

CITY           SKY/WX    TMP DP  RH WIND       PRES   REMARKS
MUNCIE         CLOUDY    76  72  87 SW6       29.88R
RICHMOND +     CLOUDY    72  70  94 SW7       29.91R

$$

INZ060-061-067>069-081>083-085>088-221400-
SOUTHWEST INDIANA

CITY           SKY/WX    TMP DP  RH WIND       PRES   REMARKS
EVANSVILLE     SUNNY     84  74  71 SW10      29.92R
HUNTINGBURG *+ SUNNY     81  76  84 SW8       29.93S

$$

INZ062-063-066-070>080-084-089>092-221400-
SOUTH CENTRAL AND SOUTHEAST INDIANA

CITY           SKY/WX    TMP DP  RH WIND       PRES   REMARKS
BEDFORD +      CLOUDY    82  73  74 SW8       29.90S
BLOOMINGTON    CLOUDY    82  74  76 SW13      29.90S
MADISON *+     MOSUNNY   82  73  74 SW6       29.94F
NORTH VERNON + CLOUDY    81  75  83 SW7       29.92F
SEYMOUR +      PTSUNNY   81  77  89 CALM      29.91S

$$





USA.gov is the U.S. government's official web portal to all federal, state and local government web resources and services.